DW7809 Newbiggin UK current weather conditions

sailwx.info

Wind from 121 at 3 knots gusting 13

Air temperature 18.3° C
Dewpoint 11.6° C

Last reported at 2019-Jun-20 11:04 UTC.
Time now 2019-Jun-20 11:19 UTC

Location: N 54°07' W 003°07'.
View on Google Maps.

See reports from other nearby stations

  
Tides and Currents Weather Stations Pressure Air Temp Water Temp Dewpoint Dewpoint Depression Visibility Wind Speed Wind Dir Waves Ship Positions
date/time (UTC)wind fromknots sea level pressurealtimeterstation pressurevisibilityair tempwater tempwave heightnotes
2019-Jun-20 11:04 121 3 gusting 13 18.3
2019-Jun-20 10:53 192 1 gusting 11 18.3
2019-Jun-20 10:43 094 4 gusting 11 17.2
2019-Jun-20 10:33 231 4 gusting 11 17.2
2019-Jun-20 10:23 267 4 gusting 13 17.2
2019-Jun-20 10:13 112 0 gusting 11 17.8
2019-Jun-20 10:03 190 1 gusting 11 18.3
2019-Jun-20 09:53 220 4 gusting 11 18.3
2019-Jun-20 09:43 260 5 gusting 8 16.7
2019-Jun-20 09:33 179 1 gusting 13 16.1
2019-Jun-20 09:23 144 2 gusting 11 16.7
2019-Jun-20 09:13 205 3 gusting 8 16.7
2019-Jun-20 09:03 238 5 gusting 11 16.7
2019-Jun-20 08:53 222 4 gusting 11 16.7
2019-Jun-20 08:42 250 5 gusting 13 15.6
2019-Jun-20 08:32 137 1 gusting 11 15.6
2019-Jun-20 08:22 159 1 gusting 8 15.6
2019-Jun-20 08:12 194 3 gusting 13 15.0
2019-Jun-20 08:02 254 5 gusting 8 15.0
2019-Jun-20 07:52 203 5 gusting 8 15.6
2019-Jun-20 07:42 254 0 gusting 11 15.0
2019-Jun-20 07:32 266 1 gusting 11 15.0
2019-Jun-20 07:22 230 4 gusting 8 15.0
2019-Jun-20 07:12 128 2 gusting 8 14.4
2019-Jun-20 07:02 197 5 gusting 8 14.4
2019-Jun-20 06:51 189 2 gusting 8 14.4
2019-Jun-20 06:41 271 14.4
2019-Jun-20 06:31 196 0 gusting 6 14.4
2019-Jun-20 06:21 128 13.9
2019-Jun-20 06:11 116 13.9
2019-Jun-20 06:01 296 13.3
2019-Jun-20 05:51 213 2 gusting 6 13.3
2019-Jun-20 05:41 232 2 gusting 8 13.3
2019-Jun-20 05:31 326 2 gusting 11 13.3
2019-Jun-20 05:21 229 4 gusting 8 13.3
2019-Jun-20 05:11 183 0 gusting 8 13.9
2019-Jun-20 05:01 331 13.9
2019-Jun-20 04:51 175 1 gusting 6 13.9
2019-Jun-20 04:40 220 5 gusting 8 13.9
2019-Jun-20 04:30 219 1 gusting 6 13.9
2019-Jun-20 04:20 189 13.9
2019-Jun-20 04:10 226 3 gusting 8 13.9
2019-Jun-20 04:00 189 13.9
2019-Jun-20 03:50 189 1 gusting 8 13.9
2019-Jun-20 03:40 219 1 gusting 8 13.9
2019-Jun-20 03:30 229 1 gusting 8 13.9
2019-Jun-20 03:20 113 1 gusting 8 13.9
2019-Jun-20 03:10 203 2 gusting 8 13.9
2019-Jun-20 03:00 243 5 gusting 11 13.9
2019-Jun-20 02:49 222 2 gusting 6 13.9
2019-Jun-20 02:39 231 1 gusting 8 13.9
2019-Jun-20 02:29 211 13.9
2019-Jun-20 02:19 212 1 gusting 8 14.4
2019-Jun-20 02:09 180 3 gusting 8 14.4
2019-Jun-20 01:59 228 5 gusting 11 14.4
2019-Jun-20 01:49 281 5 gusting 8 14.4
2019-Jun-20 01:39 181 15.0
2019-Jun-20 01:29 219 4 gusting 6 15.0
2019-Jun-20 01:19 201 0 gusting 6 15.0
2019-Jun-20 01:09 162 0 gusting 8 15.0
2019-Jun-20 00:59 208 2 gusting 6 15.0
2019-Jun-20 00:49 174 2 gusting 6 15.0
2019-Jun-20 00:39 129 14.4
2019-Jun-20 00:28 279 14.4
2019-Jun-20 00:18 177 14.4
2019-Jun-20 00:08 226 2 gusting 6 14.4
2019-Jun-19 23:58 165 14.4
2019-Jun-19 23:48 172 1 gusting 1 15.0
2019-Jun-19 23:38 170 1 gusting 4 15.0
2019-Jun-19 23:28 180 0 gusting 1 15.0
2019-Jun-19 23:18 167 15.0
2019-Jun-19 23:08 273 1 gusting 4 15.0
2019-Jun-19 22:58 174 2 gusting 6 15.0
2019-Jun-19 22:48 182 2 gusting 6 15.6
2019-Jun-19 22:37 198 2 gusting 6 15.6
2019-Jun-19 22:27 164 2 gusting 4 15.6
2019-Jun-19 22:17 160 15.0
2019-Jun-19 22:07 172 1 gusting 4 15.0
2019-Jun-19 21:57 177 15.0
2019-Jun-19 21:47 190 0 gusting 1 15.0
2019-Jun-19 21:37 159 15.0
2019-Jun-19 21:27 155 15.0
2019-Jun-19 21:17 171 0 gusting 1 15.0
2019-Jun-19 21:07 275 15.0
2019-Jun-19 20:57 166 15.0
2019-Jun-19 20:47 304 15.0
2019-Jun-19 20:37 247 1 gusting 6 15.0
2019-Jun-19 20:26 226 6 gusting 8 15.0
2019-Jun-19 20:16 205 4 gusting 8 15.0
2019-Jun-19 20:06 206 0 gusting 6 15.0
2019-Jun-19 19:56 205 2 gusting 6 15.6
2019-Jun-19 19:46 205 15.6
2019-Jun-19 19:36 229 3 gusting 4 16.7
2019-Jun-19 19:26 224 1 gusting 4 16.7
2019-Jun-19 19:16 169 0 gusting 6 16.7
2019-Jun-19 19:06 299 2 gusting 6 16.7
2019-Jun-19 18:56 180 4 gusting 8 17.2
2019-Jun-19 18:46 152 17.8
2019-Jun-19 18:36 221 1 gusting 6 17.8
2019-Jun-19 18:25 194 3 gusting 6 17.8
2019-Jun-19 18:15 149 1 gusting 6 18.9
2019-Jun-19 18:05 206 2 gusting 8 19.4
2019-Jun-19 17:55 141 0 gusting 4 20.6
2019-Jun-19 17:45 171 2 gusting 6 20.6
2019-Jun-19 17:35 222 4 gusting 6 20.6
2019-Jun-19 17:25 149 2 gusting 6 20.6
2019-Jun-19 17:15 296 3 gusting 6 21.7
2019-Jun-19 17:05 171 1 gusting 6 22.2
2019-Jun-19 17:00 197 0 gusting 6 22.8
2019-Jun-19 16:55 197 0 gusting 6 22.8
2019-Jun-19 16:50 170 0 gusting 6 22.8
2019-Jun-19 16:45 170 0 gusting 6 22.8
2019-Jun-19 16:35 204 2 gusting 4 21.7
2019-Jun-19 16:24 270 4 gusting 8 21.7
2019-Jun-19 16:14 112 0 gusting 8 21.7
2019-Jun-19 16:04 187 3 gusting 6 21.7
2019-Jun-19 15:54 221 5 gusting 8 21.7
2019-Jun-19 15:44 167 1 gusting 6 22.2
2019-Jun-19 15:34 157 2 gusting 8 21.7
2019-Jun-19 15:24 194 1 gusting 6 21.7
2019-Jun-19 15:14 192 1 gusting 6 21.1
2019-Jun-19 15:04 252 6 gusting 11 21.7
2019-Jun-19 14:54 233 3 gusting 8 21.7
2019-Jun-19 14:44 227 0 gusting 8 22.8
2019-Jun-19 14:34 332 1 gusting 6 22.8
2019-Jun-19 14:23 223 1 gusting 6 22.8
2019-Jun-19 14:13 105 1 gusting 6 22.2
2019-Jun-19 14:03 213 2 gusting 6 22.2
2019-Jun-19 13:53 226 4 gusting 8 22.2
2019-Jun-19 13:43 152 0 gusting 11 22.2
2019-Jun-19 13:33 227 6 gusting 8 21.7
2019-Jun-19 13:23 174 3 gusting 8 21.7
2019-Jun-19 13:13 173 0 gusting 6 21.1
2019-Jun-19 13:03 201 1 gusting 8 21.1
2019-Jun-19 12:53 178 3 gusting 8 21.1
2019-Jun-19 12:43 190 4 gusting 8 21.1
2019-Jun-19 12:33 187 1 gusting 11 21.1
2019-Jun-19 12:22 187 2 gusting 8 21.7
2019-Jun-19 12:12 158 1 gusting 8 21.1
2019-Jun-19 12:02 182 3 gusting 11 21.1
2019-Jun-19 11:52 134 20.6
2019-Jun-19 11:42 163 1 gusting 11 20.0
2019-Jun-19 11:32 131 2 gusting 11 20.0
2019-Jun-19 11:22 161 6 gusting 8 20.6
2019-Jun-19 11:12 173 2 gusting 11 20.6
2019-Jun-19 11:02 173 4 gusting 11 20.6
2019-Jun-19 10:52 165 5 gusting 11 20.6
2019-Jun-19 10:42 171 5 gusting 13 20.6
2019-Jun-19 10:32 169 4 gusting 8 21.1
2019-Jun-19 10:21 167 3 gusting 8 20.6
2019-Jun-19 10:11 159 0 gusting 8 20.6
2019-Jun-19 10:01 195 1 gusting 6 20.6
2019-Jun-19 09:51 213 2 gusting 8 19.4
2019-Jun-19 09:41 160 4 gusting 8 19.4
2019-Jun-19 09:31 183 1 gusting 8 19.4
2019-Jun-19 09:21 194 4 gusting 8 19.4
2019-Jun-19 09:11 168 3 gusting 6 20.6
2019-Jun-19 09:01 133 1 gusting 6 21.1
2019-Jun-19 08:51 149 1 gusting 4 20.6
2019-Jun-19 08:41 173 20.0
2019-Jun-19 08:31 155 2 gusting 4 20.0
2019-Jun-19 08:20 217 20.0
2019-Jun-19 08:10 176 2 gusting 4 18.3
2019-Jun-19 08:00 156 17.2
2019-Jun-19 07:50 003 17.8
2019-Jun-19 07:40 165 1 gusting 4 18.3
2019-Jun-19 07:30 164 17.8
2019-Jun-19 07:20 161 0 gusting 1 17.8
2019-Jun-19 07:10 146 15.6
2019-Jun-19 07:00 178 14.4
2019-Jun-19 06:50 111 14.4
2019-Jun-19 06:40 122 14.4
2019-Jun-19 06:30 165 14.4
2019-Jun-19 06:20 178 14.4
2019-Jun-19 06:10 184 14.4
2019-Jun-19 05:59 173 13.9
2019-Jun-19 05:49 177 13.9
2019-Jun-19 05:39 170 13.9
2019-Jun-19 05:29 165 13.3
2019-Jun-19 05:19 122 13.3
2019-Jun-19 05:09 119 13.3
2019-Jun-19 04:59 036 13.3
2019-Jun-19 04:49 205 13.3
2019-Jun-19 04:39 071 13.3
2019-Jun-19 04:29 111 13.9
2019-Jun-19 04:19 036 13.9
2019-Jun-19 04:09 033 13.3
2019-Jun-19 03:58 278 13.3
2019-Jun-19 03:48 278 13.3
2019-Jun-19 03:38 278 13.9
2019-Jun-19 03:28 278 13.9
2019-Jun-19 03:18 278 13.9
2019-Jun-19 03:08 278 13.9
2019-Jun-19 02:58 278 13.9
2019-Jun-19 02:48 278 13.9
2019-Jun-19 02:38 278 13.9
2019-Jun-19 02:28 278 13.9
2019-Jun-19 02:18 278 13.9
2019-Jun-19 02:08 278 13.9
2019-Jun-19 01:57 278 13.9
2019-Jun-19 01:47 278 13.9
2019-Jun-19 01:37 278 14.4
2019-Jun-19 01:27 278 13.9
2019-Jun-19 01:17 278 13.9
2019-Jun-19 01:07 278 13.9
2019-Jun-19 00:57 278 13.9
2019-Jun-19 00:47 278 14.4
2019-Jun-19 00:37 278 14.4
2019-Jun-19 00:27 278 14.4
2019-Jun-19 00:17 278 14.4
2019-Jun-19 00:07 278 14.4
2019-Jun-18 23:56 278 14.4
2019-Jun-18 23:46 278 14.4
2019-Jun-18 23:36 278 14.4
2019-Jun-18 23:26 278 14.4
2019-Jun-18 23:16 278 14.4
2019-Jun-18 23:06 278 15.0
2019-Jun-18 22:56 278 15.0
2019-Jun-18 22:46 278 15.0
2019-Jun-18 22:36 278 15.0
2019-Jun-18 22:26 278 15.0
2019-Jun-18 22:16 278 15.0
2019-Jun-18 22:06 278 15.0
2019-Jun-18 21:55 278 15.6
2019-Jun-18 21:45 278 15.6
2019-Jun-18 21:35 278 15.6
2019-Jun-18 21:05 278 15.6
2019-Jun-18 20:55 278 15.6
2019-Jun-18 20:45 278 16.1
2019-Jun-18 20:35 186 16.1
2019-Jun-18 20:25 253 16.1
2019-Jun-18 20:15 179 16.1
2019-Jun-18 20:05 170 16.7
2019-Jun-18 19:54 177 16.7
2019-Jun-18 19:44 186 16.7
2019-Jun-18 19:34 183 17.2
2019-Jun-18 19:24 166 17.2
2019-Jun-18 19:14 168 17.2
2019-Jun-18 19:04 183 17.2
2019-Jun-18 18:54 172 17.8
2019-Jun-18 18:44 178 0 gusting 1 17.8
2019-Jun-18 18:34 161 0 gusting 1 17.8
2019-Jun-18 18:24 164 0 gusting 1 17.8
2019-Jun-18 18:14 152 1 gusting 6 18.3
2019-Jun-18 18:04 155 0 gusting 4 18.3
2019-Jun-18 17:53 187 0 gusting 4 19.4
2019-Jun-18 17:43 183 0 gusting 4 19.4
2019-Jun-18 17:33 138 0 gusting 4 19.4
2019-Jun-18 17:23 144 0 gusting 4 19.4
2019-Jun-18 17:13 139 18.9
2019-Jun-18 17:03 199 1 gusting 4 20.6
2019-Jun-18 16:53 193 0 gusting 4 21.1
2019-Jun-18 16:43 178 22.2
2019-Jun-18 16:33 157 3 gusting 6 22.2
2019-Jun-18 16:23 208 2 gusting 8 22.2
2019-Jun-18 16:13 213 2 gusting 6 22.2
2019-Jun-18 16:03 166 22.8
2019-Jun-18 15:52 266 1 gusting 4 22.8
2019-Jun-18 15:42 174 2 gusting 8 22.2
2019-Jun-18 15:32 163 1 gusting 6 22.2
2019-Jun-18 15:22 187 2 gusting 6 22.2
2019-Jun-18 15:12 230 3 gusting 6 21.7
2019-Jun-18 15:02 203 2 gusting 6 21.1
2019-Jun-18 14:52 199 2 gusting 8 21.1
2019-Jun-18 14:42 164 2 gusting 8 21.1
2019-Jun-18 14:32 183 6 gusting 11 21.1
2019-Jun-18 14:22 213 4 gusting 11 21.1
2019-Jun-18 14:12 199 6 gusting 8 21.7
2019-Jun-18 14:02 112 20.6
2019-Jun-18 13:51 165 1 gusting 8 20.0
2019-Jun-18 13:41 142 2 gusting 11 20.0
2019-Jun-18 13:31 171 5 gusting 11 19.4
2019-Jun-18 13:26 180 5 gusting 13 19.4
2019-Jun-18 13:21 180 5 gusting 13 19.4
2019-Jun-18 13:11 186 4 gusting 13 19.4
2019-Jun-18 13:01 170 7 gusting 11 19.4
2019-Jun-18 12:51 211 4 gusting 11 19.4
2019-Jun-18 12:41 172 5 gusting 11 19.4
2019-Jun-18 12:31 208 3 gusting 8 20.6
2019-Jun-18 12:21 198 2 gusting 8 20.6
2019-Jun-18 12:11 199 1 gusting 11 20.6
2019-Jun-18 12:01 163 5 gusting 8 21.1
2019-Jun-18 11:51 165 5 gusting 8 20.6
2019-Jun-18 11:40 182 2 gusting 6 20.6
2019-Jun-18 11:30 147 1 gusting 6 20.6
2019-Jun-18 11:20 163 1 gusting 6 20.6
2019-Jun-18 11:10 247 1 gusting 6 20.6
2019-Jun-18 11:00 172 0 gusting 6 20.6